EW1495 Weather Reports


time (UTC)temp
C
wind
direction
speed
KPH
gust
KPH
rain 1hr
cm
rain 24hr
cm
rain mn
cm
humidity
%
barometer
mb
20260508004601 11 42 0.0 0.0 0.00 0.03 0.03 43 1006.9
20260508003051 11 40 0.0 0.0 0.00 0.03 0.03 43 1006.7
20260508001550 12 40 0.0 0.0 0.00 0.03 0.03 40 1006.6
20260508000043 12 264 0.0 0.0 0.00 0.05 0.03 41 1006.4
20260507234539 12 116 0.0 1.6 0.00 0.05 0.03 40 1006.2
20260507233033 13 119 0.0 0.0 0.00 0.05 0.03 37 1006.1
20260507231529 13 321 0.0 1.6 0.00 0.05 0.03 39 1006.0
20260507230025 14 279 0.0 0.0 0.00 0.10 0.03 37 1006.0
20260507224521 15 221 0.0 1.6 0.00 0.10 0.03 36 1005.9
20260507223016 15 224 0.0 1.6 0.00 0.10 0.03 33 1005.6
20260507221513 15 255 0.0 6.4 0.00 0.10 0.03 33 1005.5
20260507220011 16 266 0.0 6.4 0.00 0.33 0.03 32 1005.4
20260507214503 16 111 0.0 4.8 0.00 0.33 0.03 30 1005.4
20260507213059 17 240 0.0 1.6 0.00 0.33 0.03 32 1005.2
20260507211601 17 191 0.0 4.8 0.00 0.33 0.03 31 1005.4
20260507210104 17 243 0.0 4.8 0.00 0.61 0.03 32 1005.1
20260507204546 17 256 0.0 9.7 0.00 0.61 0.03 32 1005.1
20260507203108 17 179 0.0 3.2 0.00 0.61 0.03 32 1005.1
20260507201537 17 240 0.0 1.6 0.00 0.61 0.03 33 1005.1
20260507200034 16 317 0.0 1.6 0.00 0.71 0.03 36 1005.3
20260507194530 17 189 0.0 3.2 0.00 0.71 0.03 35 1005.4
20260507193025 17 236 0.0 6.4 0.00 0.71 0.03 34 1005.4
20260507191520 17 36 0.0 9.7 0.00 0.71 0.03 36 1005.6
20260507190015 18 317 0.0 8.0 0.00 0.86 0.03 33 1005.7
20260507184510 17 334 0.0 12.9 0.00 0.86 0.03 32 1005.8
20260507183011 17 249 0.0 3.2 0.00 0.86 0.03 35 1005.8
20260507181503 18 267 0.0 4.8 0.00 0.86 0.03 34 1005.8
20260507180057 18 77 1.6 9.7 0.00 0.86 0.03 34 1005.8
20260507174559 18 180 0.0 12.9 0.00 0.86 0.03 35 1005.8
20260507173123 17 278 0.0 3.2 0.00 0.86 0.03 41 1005.7
20260507171545 17 265 0.0 6.4 0.00 0.86 0.03 37 1006.1
20260507170040 17 279 0.0 3.2 0.00 0.86 0.03 41 1006.2
20260507164537 18 299 0.0 3.2 0.00 0.86 0.03 49 1006.4
20260507163032 17 252 0.0 3.2 0.00 0.86 0.03 52 1006.4
20260507161526 17 243 0.0 1.6 0.00 0.86 0.03 51 1006.7
20260507160022 16 271 0.0 6.4 0.00 0.86 0.03 53 1006.7
20260507154517 16 205 0.0 1.6 0.00 0.86 0.03 52 1007.0
20260507153012 16 296 0.0 4.8 0.00 0.86 0.03 54 1007.2
20260507151508 16 240 0.0 4.8 0.00 0.86 0.03 51 1007.3
20260507150003 16 301 0.0 4.8 0.00 0.86 0.03 53 1007.4
20260507144618 16 239 0.0 8.0 0.00 0.86 0.03 54 1007.4
20260507143102 15 79 0.0 11.3 0.00 0.86 0.03 53 1007.2
20260507141558 15 348 0.0 6.4 0.00 0.86 0.03 53 1007.2
20260507140046 15 224 0.0 1.6 0.00 0.86 0.03 56 1007.2
20260507134544 15 179 0.0 4.8 0.00 0.86 0.03 56 1007.4
20260507133106 15 160 0.0 1.6 0.00 0.86 0.03 58 1007.6
20260507131536 14 212 0.0 0.0 0.00 0.86 0.03 57 1007.6
20260507130034 13 250 0.0 1.6 0.00 0.86 0.03 51 1007.6
20260507124527 12 229 0.0 1.6 0.00 0.86 0.03 46 1007.8
20260507123131 12 264 0.0 0.0 0.00 0.86 0.03 48 1008.0
20260507121514 11 228 0.0 1.6 0.00 0.86 0.03 31 1007.9
20260507120010 10 237 0.0 0.0 0.00 0.86 0.03 8 1008.0
20260507114505 10 232 0.0 0.0 0.00 0.86 0.03 1 1007.9
20260507113005 10 246 0.0 0.0 0.00 0.86 0.03 1 1008.0
20260507111606 9 204 0.0 0.0 0.00 0.86 0.03 1 1007.8
20260507110053 9 120 0.0 0.0 0.00 0.86 0.03 1 1007.8
20260507104548 8 120 0.0 0.0 0.00 0.86 0.03 1 1007.6
20260507103048 8 292 0.0 0.0 0.00 0.86 0.03 1 1007.8
20260507101544 8 292 0.0 0.0 0.00 0.86 0.03 1 1007.6
20260507100037 8 169 0.0 0.0 0.00 0.86 0.03 1 1007.8
20260507094536 9 183 0.0 0.0 0.00 0.86 0.03 1 1007.6
20260507093026 9 65 0.0 0.0 0.00 0.86 0.03 1 1007.7
20260507091528 9 44 0.0 0.0 0.03 0.86 0.03 1 1007.1
20260507090017 9 45 0.0 0.0 0.03 0.86 0.03 1 1007.2
20260507084513 9 354 0.0 0.0 0.03 0.86 0.03 1 1006.9
20260507083007 10 334 0.0 0.0 0.03 0.86 0.03 1 1006.8
20260507081503 10 233 0.0 0.0 0.00 0.84 0.00 1 1006.9
20260507080100 10 141 0.0 0.0 0.00 0.84 0.00 1 1007.0
20260507074557 10 6 0.0 0.0 0.00 0.84 0.00 1 1006.7
20260507073101 10 304 0.0 0.0 0.00 0.84 0.00 1 1006.5
20260507071545 10 340 0.0 1.6 0.00 0.84 0.00 1 1006.7
20260507070051 10 107 0.0 0.0 0.00 0.84 0.00 1 1006.4
20260507064546 10 230 0.0 0.0 0.00 0.84 0.00 1 1006.2
20260507063036 11 250 0.0 1.6 0.00 0.84 0.00 1 1006.3
20260507061529 11 282 0.0 0.0 0.00 0.84 0.00 1 1006.4
20260507060024 11 256 0.0 0.0 0.00 0.84 0.00 1 1006.4
20260507054519 11 247 0.0 0.0 0.00 0.84 0.00 1 1006.3
20260507053014 11 264 0.0 0.0 0.00 0.84 0.00 1 1006.3
20260507051514 11 347 0.0 1.6 0.00 0.84 0.00 1 1005.9
20260507050015 12 236 0.0 0.0 0.00 0.84 0.00 1 1006.1
20260507044502 12 265 0.0 0.0 0.00 0.84 0.00 1 1006.3
20260507043057 12 239 0.0 0.0 0.00 0.84 0.00 1 1006.0
20260507041554 13 235 0.0 0.0 0.00 0.84 0.00 1 1005.9
20260507040049 13 77 0.0 0.0 0.00 0.84 0.84 1 1005.6
20260507034546 13 237 0.0 0.0 0.00 0.84 0.84 1 1005.3
20260507033050 14 255 0.0 1.6 0.00 0.84 0.84 1 1005.7
20260507031551 15 181 0.0 1.6 0.00 0.84 0.84 1 1005.5
20260507030033 15 258 0.0 0.0 0.00 0.84 0.84 1 1005.1
20260507024529 15 179 0.0 1.6 0.00 0.84 0.84 1 1004.8
20260507023026 15 239 0.0 4.8 0.00 0.84 0.84 1 1004.8
20260507021520 15 132 0.0 1.6 0.00 0.84 0.84 1 1004.7
20260507020022 15 231 0.0 0.0 0.00 0.84 0.84 1 1005.0
20260507014512 15 238 0.0 1.6 0.00 0.84 0.84 1 1005.1
20260507013008 15 249 0.0 1.6 0.00 0.84 0.84 1 1005.1
20260507011506 15 268 0.0 3.2 0.00 0.84 0.84 1 1005.3
20260507010058 15 185 0.0 1.6 0.00 0.84 0.84 1 1005.2